2021/03/31 23:22:40+0000,-41.32,-48.67,-32.34,-48.13,-53.79,-57.03
2021/03/31 23:23:32+0000,-42.12,-48.79,-31.79,-51.09,-53.80,-56.99
2021/03/31 23:24:24+0000,-41.98,-48.08,-32.04,-50.17,-53.38,-57.41
2021/03/31 23:25:16+0000,-41.11,-48.69,-32.47,-48.28,-53.42,-57.13
2021/03/31 23:26:08+0000,-41.69,-48.05,-32.50,-48.88,-54.17,-57.65
2021/03/31 23:27:00+0000,-40.81,-48.44,-32.09,-47.68,-53.38,-57.60
2021/03/31 23:27:52+0000,-41.00,-48.05,-31.86,-50.02,-53.50,-57.50
2021/03/31 23:28:45+0000,-41.18,-48.14,-32.71,-48.90,-53.64,-57.19
2021/03/31 23:29:37+0000,-41.08,-47.96,-32.87,-49.81,-23.70,-57.52
2021/03/31 23:30:29+0000,-41.27,-47.96,-32.42,-50.12,-25.48,-57.81
2021/03/31 23:31:27+0000,-41.01,-48.51,-32.98,-49.31,-53.62,-57.11
2021/03/31 23:32:19+0000,-41.73,-48.80,-32.68,-50.46,-53.68,-57.29
2021/03/31 23:33:11+0000,-41.48,-48.92,-32.39,-49.50,-53.69,-57.21
2021/03/31 23:34:03+0000,-40.39,-47.61,-32.78,-51.51,-25.43,-57.77
2021/03/31 23:34:55+0000,-41.47,-47.81,-33.18,-49.71,-53.93,-57.87
2021/03/31 23:35:47+0000,-41.37,-48.61,-33.02,-49.21,-53.61,-57.53
2021/03/31 23:36:39+0000,-41.11,-48.47,-32.47,-49.02,-54.26,-58.04
2021/03/31 23:37:31+0000,-40.78,-48.44,-32.92,-49.82,-54.04,-57.47
2021/03/31 23:38:23+0000,-40.79,-47.71,-32.45,-49.70,-54.20,-57.60
2021/03/31 23:39:15+0000,-40.62,-49.03,-32.40,-48.98,-54.46,-57.84
2021/03/31 23:40:07+0000,-40.97,-48.77,-33.24,-50.05,-54.18,-56.93
2021/03/31 23:41:07+0000,-40.61,-48.76,-9.87,-49.87,-54.44,-57.36
2021/03/31 23:41:59+0000,-40.55,-48.65,-26.45,-49.43,-53.62,-57.48
2021/03/31 23:42:51+0000,-40.82,-49.20,-32.11,-49.29,-53.91,-57.50
2021/03/31 23:43:43+0000,-41.03,-48.13,-33.10,-49.45,-53.89,-57.00
2021/03/31 23:44:35+0000,-41.16,-48.91,-32.81,-49.81,-53.92,-57.72
2021/03/31 23:45:27+0000,-40.58,-48.05,-32.43,-48.83,-53.89,-57.28
2021/03/31 23:46:19+0000,-40.97,-47.79,-32.53,-50.99,-53.68,-57.31
2021/03/31 23:47:11+0000,-40.80,-47.99,-32.65,-49.67,-54.12,-57.00
2021/03/31 23:48:03+0000,-41.53,-48.08,-32.45,-50.23,-53.93,-56.61
2021/03/31 23:48:55+0000,-40.62,-47.74,-33.01,-49.57,-53.57,-57.05
2021/03/31 23:49:48+0000,-40.92,-48.29,-32.45,-50.56,-53.97,-57.28
2021/03/31 23:50:40+0000,-41.06,-48.74,-32.45,-48.81,-53.56,-57.30
2021/03/31 23:51:40+0000,-40.33,-47.67,-32.84,-48.20,-53.59,-57.33
2021/03/31 23:52:32+0000,-40.53,-47.65,-32.76,-49.84,-53.97,-57.92
2021/03/31 23:53:24+0000,-41.08,-47.97,-32.52,-49.69,-54.41,-57.61
2021/03/31 23:54:16+0000,-40.71,-48.32,-32.28,-48.99,-54.19,-57.16
2021/03/31 23:55:08+0000,-41.52,-47.99,-32.66,-49.36,-53.77,-57.39
2021/03/31 23:56:00+0000,-40.83,-48.28,-32.91,-49.05,-53.90,-57.43
2021/03/31 23:56:52+0000,-41.40,-48.59,-32.25,-49.56,-53.98,-57.56
2021/03/31 23:57:44+0000,-41.19,-48.11,-32.29,-48.72,-53.53,-57.32
2021/03/31 23:58:36+0000,-41.09,-48.70,-32.86,-47.56,-53.67,-57.37
2021/03/31 23:59:28+0000,-40.93,-49.29,-32.46,-49.44,-54.06,-57.90
2021/04/01 00:00:21+0000,-40.75,-47.80,-31.95,-48.79,-54.30,-57.81
2021/04/01 00:01:21+0000,-41.44,-49.25,-32.66,-49.28,-53.83,-57.98
2021/04/01 00:02:13+0000,-40.77,-48.07,-32.88,-48.97,-54.37,-57.39
2021/04/01 00:03:05+0000,-41.24,-49.04,-18.98,-48.34,-54.05,-57.43
2021/04/01 00:03:57+0000,-41.11,-48.39,-32.61,-49.03,-53.46,-56.82
2021/04/01 00:04:49+0000,-40.86,-47.79,-32.30,-49.58,-54.18,-57.33
2021/04/01 00:05:41+0000,-41.42,-47.52,-31.68,-48.43,-53.85,-57.19
2021/04/01 00:06:33+0000,-40.94,-49.14,-18.78,-50.05,-53.87,-57.53
2021/04/01 00:07:26+0000,-41.32,-48.16,-31.85,-48.21,-53.96,-57.59
2021/04/01 00:08:18+0000,-40.83,-48.31,-32.54,-50.19,-53.97,-57.57
2021/04/01 00:09:10+0000,-40.36,-48.52,-19.17,-47.77,-54.07,-57.34
2021/04/01 00:10:02+0000,-41.47,-48.74,-18.44,-47.68,-54.14,-57.63
2021/04/01 00:11:02+0000,-40.35,-47.37,-20.50,-48.79,-53.65,-57.22
2021/04/01 00:11:54+0000,-40.37,-48.12,-32.36,-49.16,-53.68,-57.29
2021/04/01 00:12:46+0000,-39.16,-47.71,-32.37,-48.63,-53.87,-56.99
2021/04/01 00:13:38+0000,-39.75,-47.79,-18.42,-49.50,-53.94,-57.54
2021/04/01 00:14:30+0000,-39.98,-47.14,-18.76,-48.54,-53.77,-57.02
2021/04/01 00:15:22+0000,-40.78,-47.21,-32.80,-48.74,-53.87,-57.45
2021/04/01 00:16:14+0000,-40.56,-47.42,-32.83,-48.83,-54.02,-57.19
2021/04/01 00:17:06+0000,-40.52,-48.45,-19.59,-49.82,-53.89,-57.75
2021/04/01 00:17:58+0000,-40.52,-47.16,-32.07,-48.86,-53.57,-57.58
2021/04/01 00:18:50+0000,-40.44,-48.50,-32.07,-49.06,-52.86,-57.59
2021/04/01 00:19:43+0000,-41.40,-47.60,-32.37,-48.97,-53.88,-56.77
2021/04/01 00:20:35+0000,-41.60,-47.45,-18.89,-50.05,-53.60,-57.77
2021/04/01 00:21:33+0000,-40.66,-48.16,-19.97,-49.95,-53.83,-57.18
2021/04/01 00:22:25+0000,-40.66,-47.68,-32.21,-48.33,-54.03,-56.91
2021/04/01 00:23:17+0000,-41.25,-47.44,-32.05,-49.25,-53.68,-57.48
2021/04/01 00:24:09+0000,-40.87,-47.56,-33.08,-48.71,-54.27,-57.44
2021/04/01 00:25:01+0000,-41.48,-46.95,-32.26,-48.70,-53.74,-57.10
2021/04/01 00:25:53+0000,-40.69,-47.61,-32.85,-48.72,-53.08,-57.06
2021/04/01 00:26:45+0000,-40.14,-48.32,-31.93,-48.33,-54.18,-57.54
2021/04/01 00:27:37+0000,-40.94,-49.05,-32.43,-48.22,-53.63,-57.36
2021/04/01 00:28:29+0000,-40.00,-48.07,-32.91,-26.47,-54.08,-57.45
2021/04/01 00:29:21+0000,-41.04,-48.58,-32.29,-26.77,-53.52,-57.75
2021/04/01 00:30:14+0000,-40.11,-47.50,-33.28,-48.48,-54.26,-57.74
2021/04/01 00:31:13+0000,-40.41,-48.25,-33.03,-48.19,-53.61,-57.86
2021/04/01 00:32:05+0000,-40.65,-47.98,-32.35,-49.92,-53.90,-57.43
2021/04/01 00:32:57+0000,-41.52,-47.65,-32.07,-27.38,-53.06,-56.32
2021/04/01 00:33:49+0000,-41.39,-47.63,-32.02,-49.44,-52.94,-56.49
2021/04/01 00:34:41+0000,-40.45,-48.20,-32.22,-48.15,-52.73,-56.20
2021/04/01 00:35:33+0000,-40.82,-47.32,-32.42,-27.42,-52.69,-55.93
2021/04/01 00:36:25+0000,-41.10,-48.94,-32.40,-27.52,-52.98,-56.35
2021/04/01 00:37:17+0000,-40.75,-48.01,-32.08,-47.59,-53.34,-55.77
2021/04/01 00:38:09+0000,-41.05,-47.62,-32.75,-48.19,-52.87,-56.15
2021/04/01 00:39:01+0000,-41.11,-48.51,-32.14,-27.49,-53.23,-56.15
2021/04/01 00:39:54+0000,-41.00,-48.44,-32.13,-26.90,-53.71,-56.35
2021/04/01 00:40:46+0000,-40.48,-46.95,-32.74,-47.31,-53.29,-55.60
2021/04/01 00:41:45+0000,-40.50,-47.44,-32.33,-47.87,-52.92,-56.62
2021/04/01 00:42:37+0000,-40.81,-49.08,-32.97,-47.43,-52.83,-56.12
2021/04/01 00:43:29+0000,-40.31,-47.12,-33.21,-27.53,-52.65,-56.13
2021/04/01 00:44:21+0000,-40.96,-48.14,-32.48,-45.49,-52.93,-56.25
2021/04/01 00:45:13+0000,-40.61,-47.74,-32.46,-48.78,-53.06,-55.82
2021/04/01 00:46:05+0000,-40.41,-47.69,-33.01,-48.62,-53.52,-56.13
2021/04/01 00:46:57+0000,-39.85,-47.88,-32.72,-46.59,-53.02,-56.00
2021/04/01 00:47:49+0000,-43.03,-48.27,-32.09,-49.15,-52.66,-55.97
2021/04/01 00:48:41+0000,-41.73,-46.57,-32.42,-48.14,-52.61,-55.87
2021/04/01 00:49:33+0000,-41.87,-47.80,-32.81,-46.24,-53.80,-56.48
2021/04/01 00:50:25+0000,-42.96,-47.99,-32.66,-45.42,-52.81,-55.86
2021/04/01 00:51:23+0000,-42.45,-49.19,-31.78,-45.69,-53.29,-55.61
2021/04/01 00:52:15+0000,-41.68,-48.29,-32.07,-48.38,-53.78,-56.05
2021/04/01 00:53:07+0000,-42.19,-49.27,-33.15,-48.11,-53.23,-56.17
2021/04/01 00:53:59+0000,-41.99,-47.29,-32.61,-45.58,-53.26,-55.76
2021/04/01 00:54:51+0000,-41.57,-48.30,-32.44,-48.07,-53.21,-56.08
2021/04/01 00:55:43+0000,-41.65,-48.25,-32.83,-48.04,-53.30,-56.55
2021/04/01 00:56:35+0000,-41.24,-48.33,-32.68,-48.30,-53.27,-56.13
2021/04/01 00:57:27+0000,-41.55,-47.44,-32.60,-47.56,-53.09,-56.08
2021/04/01 00:58:19+0000,-41.58,-48.25,-32.51,-48.11,-54.01,-55.82
2021/04/01 00:59:11+0000,-41.36,-47.66,-32.85,-47.68,-52.97,-56.14
2021/04/01 01:00:04+0000,-40.40,-46.72,-33.29,-47.28,-53.91,-55.87
2021/04/01 01:01:04+0000,-41.31,-47.26,-32.34,-47.82,-53.15,-56.32
2021/04/01 01:01:56+0000,-41.45,-48.18,-32.83,-47.37,-53.34,-56.22
2021/04/01 01:02:48+0000,-41.18,-47.92,-32.84,-48.41,-53.54,-56.00
2021/04/01 01:03:40+0000,-41.24,-47.86,-32.44,-47.83,-53.30,-55.95
2021/04/01 01:04:32+0000,-40.70,-47.00,-32.96,-47.40,-53.17,-55.99
2021/04/01 01:05:24+0000,-41.02,-47.14,-32.48,-47.57,-52.78,-56.60
2021/04/01 01:06:16+0000,-41.12,-46.87,-32.35,-47.43,-53.08,-56.40
2021/04/01 01:07:08+0000,-41.03,-46.35,-32.51,-47.57,-53.71,-55.97
2021/04/01 01:08:00+0000,-40.66,-46.96,-32.82,-47.48,-53.29,-56.06
2021/04/01 01:08:52+0000,-41.35,-47.17,-32.12,-46.05,-53.20,-55.84
2021/04/01 01:09:44+0000,-41.92,-46.24,-32.33,-48.35,-52.72,-56.35
2021/04/01 01:10:36+0000,-41.21,-48.68,-32.55,-48.34,-52.77,-56.15
2021/04/01 01:11:34+0000,-40.66,-47.27,-32.83,-48.15,-53.15,-55.87
2021/04/01 01:12:26+0000,-41.66,-46.75,-32.38,-47.97,-54.07,-56.21
2021/04/01 01:13:18+0000,-41.68,-47.26,-32.48,-48.60,-53.80,-55.79
2021/04/01 01:14:10+0000,-41.09,-47.47,-32.45,-48.02,-53.76,-55.73
2021/04/01 01:15:02+0000,-41.78,-46.74,-32.95,-47.75,-54.27,-56.64
2021/04/01 01:15:54+0000,-42.04,-48.07,-31.94,-47.44,-53.69,-56.55
2021/04/01 01:16:46+0000,-41.92,-46.26,-32.43,-48.17,-53.50,-56.70
2021/04/01 01:17:38+0000,-41.94,-47.56,-32.49,-48.05,-53.91,-56.89
2021/04/01 01:18:30+0000,-42.64,-46.99,-32.45,-46.84,-53.89,-56.75
2021/04/01 01:19:22+0000,-41.70,-47.56,-32.67,-45.77,-53.73,-57.02
2021/04/01 01:20:15+0000,-42.80,-47.80,-31.89,-47.61,-54.24,-56.33
2021/04/01 01:21:13+0000,-41.78,-47.10,-32.31,-47.74,-53.73,-57.03
2021/04/01 01:22:05+0000,-42.04,-47.54,-32.52,-48.61,-54.07,-56.57
2021/04/01 01:22:57+0000,-42.36,-47.29,-32.62,-47.56,-54.02,-56.79
2021/04/01 01:23:49+0000,-42.26,-47.78,-32.60,-48.55,-54.24,-56.55
2021/04/01 01:24:41+0000,-42.38,-48.17,-32.48,-47.42,-54.50,-56.83
2021/04/01 01:25:33+0000,-42.68,-47.49,-33.01,-48.87,-54.03,-56.35
2021/04/01 01:26:25+0000,-42.32,-48.67,-32.06,-48.27,-53.71,-56.68
2021/04/01 01:27:17+0000,-42.05,-46.94,-31.68,-47.97,-54.31,-56.59
2021/04/01 01:28:09+0000,-41.48,-48.11,-32.82,-48.27,-53.82,-56.34
2021/04/01 01:29:01+0000,-41.78,-47.98,-32.28,-48.12,-54.29,-57.10
2021/04/01 01:29:53+0000,-41.74,-48.18,-32.18,-48.32,-53.97,-56.08
2021/04/01 01:30:45+0000,-42.27,-48.11,-32.31,-46.87,-53.69,-56.30
2021/04/01 01:31:43+0000,-42.24,-47.68,-33.13,-47.93,-54.07,-55.86
2021/04/01 01:32:35+0000,-42.09,-48.21,-32.17,-48.12,-53.96,-56.53
2021/04/01 01:33:27+0000,-42.61,-47.06,-32.14,-47.11,-53.98,-56.39
2021/04/01 01:34:19+0000,-41.54,-48.45,-32.15,-48.19,-54.49,-56.44
2021/04/01 01:35:11+0000,-42.86,-48.52,-32.25,-47.54,-53.80,-56.40
2021/04/01 01:36:03+0000,-41.96,-47.89,-32.67,-49.08,-53.52,-55.63
2021/04/01 01:36:55+0000,-42.62,-48.42,-31.94,-41.44,-53.64,-56.35
2021/04/01 01:37:47+0000,-42.04,-47.89,-31.98,-47.70,-53.38,-55.91
2021/04/01 01:38:39+0000,-42.63,-47.91,-32.55,-47.39,-53.89,-56.32
2021/04/01 01:39:31+0000,-43.12,-47.80,-32.70,-46.38,-53.73,-55.69
2021/04/01 01:40:24+0000,-42.71,-47.42,-32.68,-44.70,-53.62,-56.15
2021/04/01 01:41:21+0000,-42.06,-47.72,-32.94,-48.18,-54.29,-56.74
2021/04/01 01:42:13+0000,-42.86,-47.54,-33.27,-47.67,-54.22,-56.40
2021/04/01 01:43:05+0000,-43.10,-47.72,-32.99,-48.91,-53.64,-56.24
2021/04/01 01:43:57+0000,-42.72,-47.36,-32.54,-46.38,-53.56,-55.94
2021/04/01 01:44:49+0000,-42.25,-48.38,-32.88,-48.06,-53.96,-55.77
2021/04/01 01:45:41+0000,-42.44,-48.14,-32.69,-47.81,-54.00,-56.55
2021/04/01 01:46:33+0000,-42.76,-46.98,-33.02,-47.40,-53.62,-55.97
2021/04/01 01:47:25+0000,-41.79,-47.91,-32.39,-47.70,-54.25,-55.97
2021/04/01 01:48:17+0000,-42.11,-48.23,-32.74,-48.22,-54.09,-56.53
2021/04/01 01:49:09+0000,-41.30,-48.22,-32.84,-47.65,-53.94,-56.08
2021/04/01 01:50:01+0000,-41.99,-47.01,-32.97,-47.41,-53.72,-56.37
2021/04/01 01:51:01+0000,-42.49,-46.49,-32.84,-47.31,-53.32,-56.12
2021/04/01 01:51:53+0000,-41.83,-49.15,-32.96,-47.46,-54.01,-56.01
2021/04/01 01:52:45+0000,-41.78,-46.81,-32.40,-47.17,-53.95,-56.33
2021/04/01 01:53:37+0000,-41.93,-49.24,-32.53,-47.37,-54.26,-56.51
2021/04/01 01:54:29+0000,-42.76,-47.76,-32.45,-47.57,-53.78,-56.54
2021/04/01 01:55:21+0000,-40.58,-47.16,-32.40,-48.43,-54.16,-55.86
2021/04/01 01:56:13+0000,-41.94,-46.74,-33.03,-46.74,-54.05,-56.42
2021/04/01 01:57:05+0000,-41.69,-48.43,-32.90,-47.45,-54.09,-56.32
2021/04/01 01:57:57+0000,-42.05,-46.94,-33.07,-45.27,-53.65,-56.42
2021/04/01 01:58:49+0000,-41.45,-48.08,-33.09,-48.00,-53.73,-56.27
2021/04/01 01:59:41+0000,-41.35,-47.78,-32.39,-46.85,-53.85,-56.59
2021/04/01 02:00:34+0000,-40.92,-44.93,-32.71,-47.06,-54.03,-56.55
2021/04/01 02:01:43+0000,-40.79,-47.34,-32.81,-47.17,-54.00,-56.53
2021/04/01 02:02:35+0000,-41.30,-49.53,-33.39,-47.55,-54.04,-56.25
2021/04/01 02:03:27+0000,-41.80,-47.10,-33.10,-47.79,-53.83,-56.54
2021/04/01 02:04:19+0000,-42.54,-47.13,-33.13,-47.76,-53.75,-55.92
2021/04/01 02:05:11+0000,-42.22,-47.97,-32.62,-47.51,-53.96,-56.58
2021/04/01 02:06:03+0000,-40.84,-47.59,-33.18,-47.93,-53.18,-56.00
2021/04/01 02:06:55+0000,-41.37,-47.02,-33.11,-47.81,-54.19,-56.47
2021/04/01 02:07:47+0000,-41.58,-47.94,-33.30,-46.67,-53.62,-55.51
2021/04/01 02:08:39+0000,-42.08,-48.06,-32.99,-45.73,-54.24,-56.37
2021/04/01 02:09:31+0000,-42.06,-46.95,-33.49,-47.05,-53.91,-56.12
2021/04/01 02:10:23+0000,-40.98,-46.21,-32.52,-47.49,-54.05,-55.86
2021/04/01 02:11:21+0000,-41.32,-49.20,-32.78,-47.95,-54.15,-56.25
2021/04/01 02:12:13+0000,-40.92,-48.05,-32.81,-47.19,-54.30,-56.67
2021/04/01 02:13:05+0000,-41.73,-48.26,-32.59,-48.08,-54.39,-56.44
2021/04/01 02:13:57+0000,-40.51,-44.56,-32.79,-47.50,-54.14,-56.40
2021/04/01 02:14:49+0000,-40.22,-44.57,-32.95,-48.11,-53.93,-56.20
2021/04/01 02:15:41+0000,-41.35,-46.67,-32.78,-47.81,-54.03,-56.45
2021/04/01 02:16:33+0000,-41.17,-45.95,-32.84,-48.27,-54.25,-56.28
2021/04/01 02:17:25+0000,-41.02,-44.16,-32.34,-47.91,-54.08,-56.74
2021/04/01 02:18:17+0000,-41.68,-46.80,-33.16,-47.74,-54.36,-56.02
2021/04/01 02:19:09+0000,-41.81,-45.34,-32.88,-48.02,-54.19,-56.20
2021/04/01 02:20:02+0000,-40.92,-44.72,-32.74,-47.77,-54.47,-56.05
2021/04/01 02:21:01+0000,-41.41,-47.24,-33.32,-47.91,-53.95,-56.78
2021/04/01 02:21:53+0000,-40.62,-46.38,-32.74,-47.99,-54.22,-56.48
2021/04/01 02:22:45+0000,-39.94,-46.85,-32.93,-47.85,-54.36,-57.08
2021/04/01 02:23:37+0000,-40.02,-47.43,-33.14,-47.66,-54.31,-56.25
2021/04/01 02:24:29+0000,-39.78,-44.63,-32.96,-47.59,-54.01,-56.87
2021/04/01 02:25:21+0000,-41.36,-48.81,-32.85,-48.07,-54.62,-56.62
2021/04/01 02:26:13+0000,-40.15,-46.84,-32.66,-48.04,-54.30,-56.23
2021/04/01 02:27:05+0000,-39.97,-47.69,-32.47,-48.20,-54.71,-56.94
2021/04/01 02:27:57+0000,-40.79,-43.85,-32.79,-47.39,-54.21,-56.11
2021/04/01 02:28:49+0000,-41.29,-45.80,-32.34,-48.36,-54.19,-56.93
2021/04/01 02:29:41+0000,-41.08,-45.12,-32.71,-48.03,-54.30,-56.90
2021/04/01 02:30:33+0000,-40.21,-44.85,-32.69,-48.31,-54.37,-56.19
2021/04/01 02:31:32+0000,-40.27,-46.27,-32.30,-48.10,-54.50,-56.48
2021/04/01 02:32:24+0000,-40.82,-45.62,-32.78,-48.17,-54.50,-56.05
2021/04/01 02:33:16+0000,-40.67,-45.45,-33.09,-48.01,-54.09,-56.43
2021/04/01 02:34:08+0000,-40.50,-49.17,-32.35,-47.72,-54.05,-56.20
2021/04/01 02:35:00+0000,-41.07,-45.16,-32.54,-48.14,-54.04,-56.36
2021/04/01 02:35:52+0000,-40.24,-47.04,-31.53,-48.24,-54.22,-55.80
2021/04/01 02:36:44+0000,-39.02,-46.50,-32.36,-45.62,-54.40,-56.61
2021/04/01 02:37:36+0000,-37.47,-48.63,-33.02,-45.02,-53.63,-56.67
2021/04/01 02:38:28+0000,-39.69,-43.72,-32.68,-43.84,-53.86,-56.65
2021/04/01 02:39:20+0000,-39.95,-46.23,-31.83,-44.79,-53.63,-56.59
2021/04/01 02:40:12+0000,-38.40,-47.32,-32.68,-44.63,-53.54,-56.46
2021/04/01 02:41:17+0000,-40.12,-44.43,-32.36,-43.27,-54.05,-56.41
2021/04/01 02:42:09+0000,-39.04,-46.36,-32.61,-44.81,-53.84,-56.28
2021/04/01 02:43:01+0000,-37.68,-45.51,-32.24,-44.42,-53.64,-56.25
2021/04/01 02:43:53+0000,-38.71,-47.95,-31.58,-43.30,-53.55,-55.90
2021/04/01 02:44:45+0000,-40.16,-47.19,-32.08,-44.66,-53.80,-56.43
2021/04/01 02:45:37+0000,-39.20,-48.99,-32.18,-44.00,-54.15,-55.84
2021/04/01 02:46:29+0000,-39.68,-44.74,-32.67,-43.76,-53.31,-56.48
2021/04/01 02:47:21+0000,-39.95,-48.66,-31.27,-43.97,-53.55,-56.15
2021/04/01 02:48:13+0000,-39.56,-46.76,-31.89,-43.27,-54.14,-56.71
2021/04/01 02:49:05+0000,-39.01,-45.57,-32.00,-42.88,-53.73,-55.87
2021/04/01 02:49:57+0000,-38.91,-47.40,-31.86,-42.92,-53.63,-56.00
2021/04/01 02:50:49+0000,-39.62,-45.16,-32.00,-43.44,-53.71,-56.34
2021/04/01 02:51:47+0000,-39.98,-45.98,-31.18,-43.27,-54.16,-56.35
2021/04/01 02:52:39+0000,-39.07,-44.80,-32.68,-43.47,-53.97,-56.17
2021/04/01 02:53:31+0000,-38.82,-45.52,-31.46,-43.07,-54.09,-56.29
2021/04/01 02:54:23+0000,-39.55,-48.79,-31.69,-42.57,-53.55,-56.09
2021/04/01 02:55:15+0000,-39.59,-45.77,-32.20,-42.04,-53.83,-56.32
2021/04/01 02:56:07+0000,-38.95,-48.25,-31.89,-42.86,-53.85,-56.00
2021/04/01 02:56:59+0000,-38.31,-45.29,-33.03,-42.47,-53.35,-56.82
2021/04/01 02:57:51+0000,-38.26,-45.28,-31.52,-43.07,-53.85,-55.89
2021/04/01 02:58:43+0000,-39.99,-45.25,-33.37,-42.42,-53.35,-55.68
2021/04/01 02:59:35+0000,-40.08,-46.28,-32.24,-42.50,-53.34,-55.67
2021/04/01 03:00:27+0000,-38.83,-45.80,-31.64,-41.72,-53.56,-56.22
2021/04/01 03:01:27+0000,-38.42,-46.33,-32.99,-42.64,-54.53,-56.29
2021/04/01 03:02:19+0000,-39.80,-48.01,-31.84,-41.67,-53.54,-55.77
2021/04/01 03:03:11+0000,-39.09,-45.12,-32.62,-42.58,-53.88,-55.87
2021/04/01 03:04:03+0000,-38.35,-46.57,-32.35,-42.92,-53.79,-55.89
2021/04/01 03:04:56+0000,-39.52,-46.56,-31.82,-42.86,-53.87,-56.29
2021/04/01 03:05:48+0000,-39.52,-46.25,-31.85,-43.32,-53.95,-55.80
2021/04/01 03:06:40+0000,-38.98,-45.30,-32.87,-42.43,-53.78,-55.54
2021/04/01 03:07:32+0000,-39.04,-46.09,-33.12,-43.20,-54.41,-55.52
2021/04/01 03:08:24+0000,-38.77,-46.42,-31.21,-43.01,-53.65,-55.88
2021/04/01 03:09:16+0000,-39.83,-44.73,-31.99,-42.51,-54.62,-56.36
2021/04/01 03:10:08+0000,-39.05,-45.65,-32.41,-42.84,-53.93,-55.82
2021/04/01 03:11:08+0000,-38.69,-45.19,-32.66,-43.04,-53.48,-55.32
2021/04/01 03:12:00+0000,-39.36,-44.50,-32.92,-43.03,-53.66,-55.08
2021/04/01 03:12:52+0000,-37.98,-46.96,-31.07,-43.29,-54.07,-54.64
2021/04/01 03:13:44+0000,-38.76,-43.91,-32.45,-43.65,-53.43,-54.85
2021/04/01 03:14:36+0000,-39.51,-46.16,-32.08,-43.19,-53.74,-55.16
2021/04/01 03:15:28+0000,-38.43,-44.71,-32.05,-43.57,-53.19,-54.58
2021/04/01 03:16:20+0000,-38.97,-48.69,-31.82,-42.36,-54.16,-54.91
2021/04/01 03:17:12+0000,-39.35,-44.36,-32.45,-43.67,-53.80,-55.02
2021/04/01 03:18:04+0000,-39.17,-45.98,-30.35,-43.23,-53.33,-54.59
2021/04/01 03:18:56+0000,-38.34,-44.37,-32.52,-44.45,-53.91,-55.50
2021/04/01 03:19:49+0000,-39.35,-43.98,-31.69,-43.62,-53.35,-54.79
2021/04/01 03:20:41+0000,-39.37,-43.03,-30.10,-43.39,-53.33,-54.31
2021/04/01 03:21:45+0000,-38.46,-44.74,-31.70,-44.40,-53.32,-54.26
2021/04/01 03:22:37+0000,-37.99,-46.30,-31.04,-43.77,-53.76,-54.99
2021/04/01 03:23:29+0000,-37.63,-46.07,-32.42,-43.35,-53.09,-54.01
2021/04/01 03:24:21+0000,-36.99,-46.10,-32.28,-44.12,-53.33,-55.52
2021/04/01 03:25:14+0000,-38.94,-45.09,-32.76,-42.74,-53.75,-54.79
2021/04/01 03:26:06+0000,-39.11,-45.32,-31.44,-42.82,-53.72,-55.63
2021/04/01 03:26:58+0000,-37.49,-44.04,-32.52,-42.75,-53.12,-55.68
2021/04/01 03:27:50+0000,-36.36,-45.06,-31.71,-43.07,-53.61,-55.75
2021/04/01 03:28:42+0000,-38.08,-45.73,-32.26,-42.96,-53.69,-54.98
2021/04/01 03:29:34+0000,-38.25,-45.16,-32.66,-42.45,-53.72,-54.95
2021/04/01 03:30:26+0000,-36.73,-45.77,-31.80,-42.61,-53.52,-54.88
2021/04/01 03:31:31+0000,-38.59,-46.56,-32.76,-42.84,-54.02,-55.19
2021/04/01 03:32:23+0000,-38.63,-48.09,-31.81,-43.74,-53.89,-54.96
2021/04/01 03:33:15+0000,-38.11,-44.30,-32.16,-42.49,-53.89,-54.79
2021/04/01 03:34:07+0000,-36.99,-48.82,-32.98,-43.64,-53.55,-54.95
2021/04/01 03:34:59+0000,-33.81,-46.59,-32.86,-42.45,-54.27,-54.83
2021/04/01 03:35:51+0000,-33.25,-48.63,-31.79,-42.44,-54.00,-55.42
2021/04/01 03:36:43+0000,-36.98,-46.28,-32.54,-42.47,-52.71,-55.12
2021/04/01 03:37:35+0000,-38.42,-42.41,-33.08,-42.67,-53.35,-54.20
2021/04/01 03:38:27+0000,-36.10,-43.91,-33.06,-43.07,-52.95,-54.52
2021/04/01 03:39:19+0000,-37.09,-43.49,-31.94,-43.33,-52.62,-55.35
2021/04/01 03:40:11+0000,-38.52,-44.52,-32.62,-43.21,-52.94,-55.19
2021/04/01 03:41:09+0000,-37.71,-44.44,-32.67,-43.66,-52.86,-55.16
2021/04/01 03:42:01+0000,-38.59,-43.62,-33.02,-42.91,-52.53,-55.00
2021/04/01 03:42:53+0000,-38.02,-47.94,-32.52,-42.69,-52.40,-55.01
2021/04/01 03:43:45+0000,-38.15,-44.94,-32.35,-43.35,-53.39,-54.78
2021/04/01 03:44:37+0000,-37.87,-47.73,-32.52,-43.19,-52.64,-55.40
2021/04/01 03:45:29+0000,-32.80,-44.58,-33.20,-41.96,-52.83,-54.78
2021/04/01 03:46:21+0000,-33.41,-48.28,-32.69,-42.35,-52.72,-55.96
2021/04/01 03:47:13+0000,-37.52,-44.39,-32.64,-41.74,-52.75,-55.48
2021/04/01 03:48:05+0000,-37.97,-46.19,-32.16,-43.04,-53.45,-55.29
2021/04/01 03:48:57+0000,-37.63,-45.33,-32.49,-43.04,-53.35,-54.76
2021/04/01 03:49:49+0000,-38.28,-45.37,-32.39,-43.44,-52.84,-54.76
2021/04/01 03:50:41+0000,-37.91,-45.69,-31.75,-43.23,-52.54,-54.71
2021/04/01 03:51:40+0000,-38.37,-46.09,-32.65,-43.27,-53.39,-54.89
2021/04/01 03:52:32+0000,-37.72,-45.29,-31.61,-42.48,-52.37,-55.86
2021/04/01 03:53:24+0000,-38.14,-45.37,-31.35,-42.59,-52.38,-55.40
2021/04/01 03:54:16+0000,-39.19,-45.32,-32.78,-42.53,-52.97,-55.32
2021/04/01 03:55:08+0000,-33.38,-46.07,-31.22,-42.37,-51.88,-55.54
2021/04/01 03:56:00+0000,-38.50,-44.37,-32.51,-42.97,-52.61,-56.04
2021/04/01 03:56:52+0000,-37.07,-45.77,-31.91,-44.13,-52.89,-56.14
2021/04/01 03:57:44+0000,-37.73,-44.16,-32.77,-44.60,-52.83,-55.59
2021/04/01 03:58:36+0000,-37.91,-45.24,-31.19,-44.26,-53.20,-54.98
2021/04/01 03:59:28+0000,-37.02,-45.34,-32.22,-50.84,-52.77,-55.25
2021/04/01 04:00:20+0000,-38.43,-46.22,-32.90,-51.29,-52.47,-54.99
2021/04/01 04:01:19+0000,-38.66,-43.96,-32.68,-51.14,-52.87,-55.31
2021/04/01 04:02:11+0000,-38.84,-43.58,-32.84,-50.81,-52.46,-55.16
2021/04/01 04:03:03+0000,-38.35,-45.03,-32.79,-51.03,-52.42,-54.95
2021/04/01 04:03:55+0000,-38.24,-45.47,-32.41,-51.19,-52.98,-55.72
2021/04/01 04:04:47+0000,-38.78,-45.68,-31.90,-51.18,-52.83,-55.43
2021/04/01 04:05:39+0000,-38.41,-45.29,-32.58,-50.96,-53.50,-54.70
2021/04/01 04:06:31+0000,-37.86,-45.86,-31.24,-51.35,-52.54,-55.08
2021/04/01 04:07:23+0000,-38.11,-44.99,-31.93,-51.37,-52.76,-54.90
2021/04/01 04:08:15+0000,-39.47,-43.46,-31.39,-51.33,-52.58,-54.83
2021/04/01 04:09:07+0000,-39.82,-45.21,-32.13,-51.40,-52.88,-55.25
2021/04/01 04:09:59+0000,-39.79,-44.37,-32.47,-51.93,-52.67,-55.62
2021/04/01 04:10:51+0000,-38.67,-47.10,-32.30,-51.33,-52.66,-54.92
2021/04/01 04:11:49+0000,-38.89,-44.30,-33.01,-51.52,-52.93,-55.09
2021/04/01 04:12:41+0000,-38.88,-44.16,-32.81,-51.60,-52.89,-55.27
2021/04/01 04:13:33+0000,-39.74,-45.56,-32.56,-51.10,-52.62,-54.71
2021/04/01 04:14:25+0000,-38.59,-45.21,-32.39,-50.71,-52.40,-54.96
2021/04/01 04:15:17+0000,-38.05,-44.42,-32.20,-50.83,-52.90,-55.13
2021/04/01 04:16:09+0000,-38.36,-45.00,-32.13,-51.57,-52.48,-55.50
2021/04/01 04:17:01+0000,-39.06,-45.57,-31.87,-51.70,-52.30,-54.96
2021/04/01 04:17:53+0000,-38.76,-45.01,-32.10,-51.56,-52.27,-55.25
2021/04/01 04:18:45+0000,-41.25,-45.67,-32.15,-51.24,-52.25,-54.86
2021/04/01 04:19:37+0000,-39.57,-45.43,-32.50,-52.08,-52.23,-55.72
2021/04/01 04:20:30+0000,-39.98,-44.73,-32.48,-51.42,-52.37,-55.08
2021/04/01 04:21:28+0000,-39.86,-44.89,-32.56,-51.79,-52.56,-55.51
2021/04/01 04:22:20+0000,-39.51,-48.25,-32.93,-52.41,-52.74,-56.24
2021/04/01 04:23:12+0000,-39.46,-46.16,-32.52,-51.70,-52.80,-56.06
2021/04/01 04:24:04+0000,-39.60,-44.57,-32.55,-52.07,-52.77,-56.66
2021/04/01 04:24:56+0000,-39.22,-45.01,-31.03,-51.64,-53.23,-56.58
2021/04/01 04:25:48+0000,-38.09,-45.93,-31.60,-51.85,-52.90,-56.97
2021/04/01 04:26:40+0000,-39.82,-46.80,-32.04,-51.72,-52.79,-56.55
2021/04/01 04:27:32+0000,-40.04,-45.53,-32.55,-51.53,-52.67,-56.33
2021/04/01 04:28:24+0000,-38.11,-45.41,-31.77,-51.08,-52.57,-56.76
2021/04/01 04:29:16+0000,-40.63,-43.76,-32.26,-52.06,-52.84,-56.72
2021/04/01 04:30:09+0000,-38.75,-45.48,-33.07,-51.63,-53.23,-56.90
2021/04/01 04:31:10+0000,-39.99,-45.75,-33.09,-51.41,-52.87,-56.51
2021/04/01 04:32:02+0000,-40.21,-45.37,-32.54,-51.60,-52.83,-56.68
2021/04/01 04:32:54+0000,-39.61,-45.36,-32.46,-51.77,-52.50,-56.12
2021/04/01 04:33:46+0000,-40.93,-45.59,-30.03,-51.76,-52.96,-56.12
2021/04/01 04:34:38+0000,-38.23,-47.04,-32.87,-52.05,-52.99,-56.16
2021/04/01 04:35:30+0000,-39.72,-44.99,-33.10,-51.46,-53.10,-56.21
2021/04/01 04:36:22+0000,-38.29,-46.69,-29.74,-51.40,-52.49,-56.13